{"data":{"norad_id":62989,"epoch":"2026-05-25T04:00:03.998880Z","epoch_age_seconds":64116,"freshness":"FRESH","line1":"1 62989U 25031J   26145.16671295 -.00105745  00000+0 -82994-3 0  9998","line2":"2 62989  43.0003 260.6562 0001751 263.5170 263.0953 15.70872272  5971","mean_motion":15.70872272,"eccentricity":0.0001751,"inclination_deg":43.0003,"raan_deg":260.6562,"arg_perigee_deg":263.517,"mean_anomaly_deg":263.0953,"bstar":-0.00082994,"rev_number":597,"period_min":91.668815196962,"perigee_km":355.22360580876,"apogee_km":357.58204165503,"semimajor_km":6734.5398237319,"source":"CELESTRAK","updated_at":"2026-05-25T13:38:19.831707Z"}}